Filtrer par Nom Sexe Groupe d'age
Marmotte Granfondo Valais 2019
RG. DOS. TEMPS CAT RG. POINTS
1 11 MORY MICHAEL 04:48:34:00 C 1 0.00 SAINT MARTIN D HERES, France
2 1105 DEBONS ANTOINE 04:49:16:00 C 2 0.00 Martigny, Suisse
3 1000 RAPILLARD ARNAUD 04:51:41:00 D 1 0.00 Sion, Suisse
4 30 POLVERONI DAVID 04:59:34:00 D 2 0.00 NOYAREY, France
5 1088 BECHET PHILIPPE 05:03:04:00 D 3 0.00 GRANDVAUX, Suisse
6 475 Boscardin Kevin 05:09:47:00 D 4 0.00 Gland, Suisse
7 15 VAN CAULIL GABY 05:12:30:00 E 1 0.00 Arnhem, Pays-Bas
8 287 JOLIAT YVES 05:13:05:00 F 1 0.00 St-Sulpice, Suisse
9 672 ALTEWISCHER WERNER 05:14:13:00 E 2 0.00 ARNHEM, Pays-Bas
10 893 DE WIT COEN 05:16:24:00 F 2 0.00 Arnhem, Pays-Bas
11 418 BAIOLET NICOLAS 05:17:40:00 D 5 0.00 CHIMAY, Belgique
12 546 CHAUVEAU NICOLAS 05:18:02:00 C 3 0.00 Bouveret, Suisse
13 365 CORREVON NILS 05:23:24:00 D 6 0.00 Lausanne, Suisse
14 959 REULAND PHILIPPE 05:27:03:00 C 6 0.00 Zürich, Suisse
15 1125 FAGGION GIUSEPPE 05:28:01:00 F 3 0.00 LULLY, Suisse
16 647 DESMET PASCAL 05:29:32:00 E 3 0.00 kortrijk, Belgique
17 1083 GADOMSKI JEREMY 05:30:14:00 D 7 0.00 La Chaux de Fonds, Suisse
18 948 ZAUGG OLIVER 05:30:37:00 D 8 0.00 Losone, Suisse
19 32 STELLER MICHIEL 05:33:08:00 C 8 0.00 WADDINXVEEN, Pays-Bas
20 668 FAISS RAPHAEL 05:33:45:00 E 4 0.00 Pampigny, Suisse
21 8 VAN LAER JENS 05:35:22:00 E 7 0.00 Gierle, Belgique
22 1117 FLEURY PASCAL 05:35:27:00 E 5 0.00 Montana-Village, Suisse
23 192 VAN DER SLOOT ROLAND 05:36:43:00 C 4 0.00 s-Hertogenbosch, Pays-Bas
24 837 RUFFIEUX SAMUEL 05:37:44:00 D 9 0.00 Les Marécottes, Suisse
25 91 VAN DER CRUYSSEN MARIJN 05:37:50:00 D 13 0.00 Kessel-Lo, Belgique
26 1122 BESELGA GOMES FERNANDO 05:37:56:00 D 10 0.00 Broc, Suisse
27 36 MORARD ERIC 05:38:13:00 E 6 0.00 Chermignon, Suisse
28 241 van Dop Thomas 05:38:13:00 D 11 0.00 Amsterdam, Netherlands
29 855 FURST VALENTIN 05:38:26:00 C 5 0.00 Le Bouveret, Suisse
30 94 MERTENS BRAM 05:39:25:00 C 9 0.00 Mol, Belgique
31 934 VUILLE ANTOINE 05:40:31:00 D 16 0.00 Paudex, Suisse
32 164 BRUN JEAN PHILIPPE 05:41:11:00 D 15 0.00 GENŠVE, Suisse
33 723 HERTER JULES 05:41:21:00 C 10 0.00 ollon vs, Suisse
34 1013 FRICKER DANIEL 05:41:55:00 F 4 0.00 RIEDISHEIM, France
35 117 FELLAY BENOIT 05:41:58:00 E 8 0.00 LE CHâBLE VS, Suisse
36 551 MENETREY MAXENCE 05:43:11:00 C 7 0.00 PULLY, Suisse
37 733 SCHWAAR CHRISTOPHE 05:43:33:00 D 12 0.00 BUSSIGNY, Suisse
38 1073 NUSSBAUMER HARRY 05:43:36:00 F 5 0.00 Seegräben, Suisse
39 943 THIRION JEAN-LUC 05:43:55:00 D 14 0.00 Morges, Suisse
40 809 SIGG RALPH 05:44:25:00 G1 1 0.00 BASEL, Suisse
41 884 HAUSWIRTH DAVID 05:44:39:00 C 11 0.00 Seuzach, Suisse
42 641 GIANESINI SEBASTIEN 05:47:22:00 D 21 0.00 Bramois, Suisse
43 112 HOTTINGER STéPHANE 05:48:00:00 D 19 0.00 ORSIèRES, Suisse
44 684 FALKNER PHILIP 05:49:18:00 D 17 0.00 Lostorf, Suisse
45 1025 CRETTAZ JEAN-PHILIPPE 05:50:35:00 C 15 0.00 Diolly Savièse, Suisse
46 1049 HEITLAND THOMAS 05:51:24:00 E 11 0.00 LES COLLONS, Suisse
47 349 BRUCHEZ JEAN-YVES 05:52:34:00 D 24 0.00 FULLY, Suisse
48 958 FRAGNIERE JEAN-JACQUES 05:52:39:00 E 12 0.00 VEYSONNAZ, Suisse
49 27 ROCHAT VINCENT 05:53:10:00 D 25 0.00 CRANS-MONTANA, Suisse
50 865 GATTLEN SEBASTIEN 05:53:39:00 D 18 0.00 Sion, Suisse
51 1067 SALVADORI VICTOR 05:53:40:00 C 12 0.00 Salins, Suisse
52 393 BURGER OLAF 05:53:44:00 F 6 0.00 FREIBURG, Allemagne
53 795 SAUZE ETIENNE 05:53:45:00 E 16 0.00 GEX, France
54 1079 LE MEE GWEN 05:54:25:00 E 10 0.00 guyencourt, France
55 1054 LOZZIA PABLO 05:54:54:00 C 17 0.00 Chamoson, Suisse
56 1006 BERNEY KATJA 05:55:00:00 A 1 0.00 savièse, Suisse
57 1007 BERNEY JEAN-CLAUSE 05:55:23:00 G1 2 0.00 St-Sulpice, Suisse
58 172 SAVATTERO MARCO 05:55:59:00 C 24 0.00 GRUGLIASCO, Italie
59 92 VAN DE PLAS SEAN 05:56:31:00 D 22 0.00 Den Haag, Pays-Bas
60 772 MATYSIAK MARTIN 05:56:34:00 C 16 0.00 Zürich, Suisse
61 937 GALLEY STEPHANE 05:56:40:00 E 14 0.00 Marnand, Suisse
62 1060 GALLEY PHILIPPE 05:56:41:00 D 23 0.00 Gstaad, Suisse
63 1076 CANNELLE EDDY 05:56:43:00 E 9 0.00 Premanon, France
64 598 CALAME NICOLAS 05:56:54:00 E 17 0.00 Neuchâtel, Suisse
65 1031 ANCAY BASILE 05:58:29:00 C 22 0.00 Fully, Suisse
66 269 KLEIN POELHUIS JAN 05:59:15:00 D 27 0.00 UTRECHT, Pays-Bas
67 282 WATERHOUSE ANDREW 05:59:36:00 E 18 0.00 BASEL, Suisse
68 248 PERRILLAT MERCEROT ALEXANDRE 05:59:43:00 C 14 0.00 LE GRAND BORNAND, France
69 520 MOHLER SVEN 06:00:12:00 D 20 0.00 Hagendorn, Suisse
70 1121 HUSCHENBETT MARTIN 06:00:36:00 D 29 0.00 Zürich, Suisse
71 867 VAN DALFSEN RENE 06:00:41:00 E 13 0.00 Kampen, Pays-Bas
72 692 CAREELMAN MICHAEL 06:01:02:00 D 26 0.00 KLUISBERGEN, Belgique
73 1045 KNOEPFLI DAMIEN 06:01:32:00 E 15 0.00 Lucens, Suisse
74 584 CHAUVIN WUILLIAM 06:01:57:00 C 13 0.00 Longchaumois, France
75 162 KLEISER JOHANNES 06:02:58:00 C 18 0.00 Genève, Suisse
76 468 MALTHE MOLLERUP JAKOB 06:03:37:00 D 31 0.00 Zürich, Suisse
77 931 MATXINANDIARENA JOKIN 06:03:41:00 C 19 0.00 Gabiria, Espagne
78 487 UHLMANN TOBIAS 06:03:59:00 D 33 0.00 Zürich, Suisse
79 938 DAYER ROMAIN 06:04:03:00 C 20 0.00 Ardon, Suisse
80 704 CRAVIOLINI XAVIER 06:05:33:00 E 19 0.00 BRAMOIS, Suisse
81 654 STEVENSE DENNIS 06:07:05:00 D 28 0.00 Bruinisse, Pays-Bas
82 331 BRAEM DAVID 06:07:18:00 D 34 0.00 MOERZEKE, Belgique
83 890 HOLTZHAUSEN FRANS 06:08:16:00 D 35 0.00 RTERSCHEN, Suisse
84 840 VILLE HELSKE 06:08:52:00 E 22 0.00 GENEVE, Suisse
85 665 SCHALOW ERIC 06:08:59:00 E 21 0.00 Oberursel, Allemagne
86 712 CANAZZO TIZIANO 06:09:44:00 F 7 0.00 Fully, Suisse
87 1034 SIJSSENS WOUTER 06:09:58:00 D 39 0.00 Leuk-Stadt, Suisse
88 233 GIRARD FABIEN 06:10:03:00 D 30 0.00 Gletterens, Suisse
89 1026 TRUONG PERRINE 06:10:08:00 A 2 0.00 Arbaz, Suisse
90 558 RAUSIS GREGORY 06:10:38:00 E 20 0.00 ORSIERES, Suisse
91 501 SARRASIN LIONEL 06:10:39:00 D 32 0.00 Orsières, Suisse
92 882 HANNI ANTONIN 06:11:27:00 C 21 0.00 Chézard-St-Martin, Suisse
93 553 WARIDEL CORINNE 06:11:30:00 B 1 0.00 Pully, Suisse
94 660 FERREIRA RODRIGO 06:11:53:00 C 23 0.00 Sierre, Suisse
95 680 GOETSCHALCKX DIRK 06:12:43:00 F 8 0.00 Hoogstraten, Belgique
96 1087 FARCZADI LINDA 06:13:13:00 A 3 0.00 GRANDVAUX, Suisse
97 621 ROSSANDER NICOLAS 06:13:38:00 D 38 0.00 MOUXY, France
98 98 TERRYN GRIET 06:14:17:00 AB 1 0.00 Koersel-Beringen, Belgique
99 986 MOLLIER JEREMY 06:15:21:00 D 37 0.00 Montlebon, France
100 398 SIERRO GILLES 06:15:24:00 E 26 0.00 HERMENCE, Suisse
101 185 MEYER ANDREAS 06:15:29:00 E 28 0.00 LA CROIX, Suisse
102 294 TAVAZZI ALEXANDRE 06:15:42:00 F 12 0.00 CHéSEREX, Suisse
103 927 JACKSON SIMON 06:15:50:00 E 24 0.00 Chesham, Royaume-Uni
104 760 AGUIAR ORLANDO 06:16:15:00 F 9 0.00 CHAVORNAY, Suisse
105 940 CLARET CYRILLE 06:16:50:00 E 23 0.00 SALLANCHES, France
106 1072 BARBEZAT PAUL 06:17:18:00 C 26 0.00 VERCORIN, Suisse
107 432 CHRISTEN URVAN 06:17:29:00 C 25 0.00 Yutz, France
108 1046 LEROY ANTOINE 06:17:44:00 D 41 0.00 neydens, France
109 358 ROSSET STEPHANE 06:17:45:00 F 10 0.00 YVERDON-LES-BAINS, Suisse
110 841 FRAGNIERE GAETAN 06:18:26:00 D 36 0.00 BEGNINS, Suisse
111 928 BERANGER JULIEN 06:18:39:00 D 43 0.00 SAINT EUSTACHE, France
112 870 CRETET YOANN 06:18:40:00 E 25 0.00 Lucens, Suisse
113 797 LAUREYNS PETER 06:19:30:00 E 30 0.00 Huldenberg, Belgique
114 618 DECONINCK BENOIT 06:19:32:00 D 44 0.00 Savièse, Suisse
115 1024 LEFEBVRE DE PLINVAL PIERRE-LOUIS 06:19:35:00 D 47 0.00 Zurich, Suisse
116 1050 LOCHER DAVID 06:19:40:00 D 52 0.00 CHALAIS, Suisse
117 596 DARBELLAY JONAS 06:19:47:00 C 31 0.00 Martigny, Suisse
118 671 IMHOF SAMUEL 06:19:51:00 C 27 0.00 Le Bouveret, Suisse
119 901 ESTLER CHRISTIAN 06:19:53:00 D 49 0.00 Zürich, Suisse
120 727 COMBY DANIEL 06:20:35:00 F 14 0.00 Isérables, Suisse
121 728 PERRAUDIN DAVID 06:20:39:00 E 32 0.00 La Tzoumaz, Suisse
122 482 AUDENAERDE YANNIC 06:21:04:00 C 32 0.00 WESTKAPELLE, Pays-Bas
123 401 SINGER MARC 06:21:31:00 E 27 0.00 Gunsbach, France
124 1003 POGGIALI ROGER 06:21:37:00 F 11 0.00 Marin, Suisse
125 25 SEGALA FAUSTO 06:21:48:00 G1 3 0.00 Osio Sotto, Italie
126 1032 LEGIOT CYRIL 06:21:48:00 E 31 0.00 DIJON, France
127 31 STELLER MAURITS 06:22:11:00 D 50 0.00 WADDINXVEEN, Pays-Bas
128 921 NAGAR BEN 06:22:12:00 C 28 0.00 Schilde, Belgique
129 423 LESNE FLORIAN 06:22:23:00 E 33 0.00 Evilard, Suisse
130 473 NELEMAN JACCO 06:22:31:00 E 36 0.00 Bergschenhoek, Pays-Bas
131 829 REY JEAN-CLAUDE 06:23:27:00 F 13 0.00 YVONAND, Suisse
132 521 COLLILIEUX GEROME 06:23:39:00 D 42 0.00 HEILLECOURT, France
133 555 BURNAND NICOLAS 06:23:39:00 C 29 0.00 PULLY, Suisse
134 677 TARDIF MAXIME 06:23:48:00 E 29 0.00 sourdeval, France
135 383 WOEFFRAY JOHANN 06:24:22:00 D 58 0.00 Monthey, Suisse
136 924 MATTIUSSI OLIVIER 06:24:44:00 D 83 0.00 CHAMOSON, Suisse
137 1039 NANCHEN LIONEL 06:25:50:00 D 40 0.00 Crans-Montana, Suisse
138 780 LALLIER ANTOINE 06:26:08:00 D 53 0.00 LUXEMBOURG, Luxembourg
139 1114 CHABLE FRANCOISE 06:26:27:00 B 2 0.00 Villars, Suisse
140 405 ROUVINEZ PHILIPPE 06:27:04:00 D 46 0.00 Sion, Suisse
141 828 KEGLER THOMAS 06:27:45:00 C 30 0.00 Gunsbach, France
142 916 OOSTERBROEK DAVID BARTELD 06:27:47:00 E 34 0.00 NIJKERK, Pays-Bas
143 914 NIEWOLD JELLE 06:27:51:00 E 35 0.00 WADDINXVEEN, Pays-Bas
144 500 TALBOT DARREN 06:27:52:00 E 38 0.00 ANDERMATT, Suisse
145 648 TESTUZ PATRICK 06:28:00:00 E 39 0.00 CHESIèRES, Suisse
146 968 JUILLERAT OLIVIER 06:28:44:00 E 37 0.00 SION, Suisse
147 371 DONZE DIDIER 06:28:45:00 D 45 0.00 St-Sulpice VD, Suisse
148 20 Donadei David 06:28:55:00 D 48 0.00 Courrendlin, Suisse
149 307 BARTHE CHRISTOPHE 06:28:58:00 F 20 0.00 GENEVE, Suisse
150 817 CAMPBELL LACHLAN 06:28:58:00 E 42 0.00 ALLSCHWIL, Suisse
151 1065 ANNEN THIERRY 06:29:34:00 F 15 0.00 St Saphorin/Morges, Suisse
152 460 ANDERSEN HENRIK 06:29:51:00 D 51 0.00 Copenhagen, Danemark
153 1085 ALPEN VICTORIA 06:30:08:00 AB 2 0.00 Genève, Suisse
154 826 MAIA HUGO 06:30:33:00 D 61 0.00 GENEVE, Suisse
155 140 JACQUIN BENOIT 06:30:44:00 D 54 0.00 les fourgs, France
156 433 ROSSIER CORENTIN 06:31:00:00 C 33 0.00 Fully, Suisse
157 306 CHEVALLEY FABIAN 06:31:09:00 D 56 0.00 CHALAIS, Suisse
158 541 BREGGER YVES 06:31:16:00 E 40 0.00 Gollion, Suisse
159 687 MONNET CHRISTIAN 06:31:18:00 F 17 0.00 Martigny, Suisse
160 749 DEMAUREX DANILO 06:31:27:00 C 36 0.00 Hergiswil, Suisse
161 43 PIROLET JONATHAN 06:31:29:00 C 37 0.00 , Suisse
162 656 LAMON ROMAIN 06:31:46:00 D 59 0.00 SION, Suisse
163 798 BOJARSKI MATEUSZ 06:32:19:00 E 41 0.00 WALBRZYCH, Pologne
164 96 LAGRANGE THOMAS 06:32:30:00 D 55 0.00 Antwerpen, Belgique
165 813 BARUCHET ARNAUD 06:32:41:00 C 34 0.00 Le Bouveret, Suisse
166 313 PERGOUD LUDOVIC 06:32:50:00 D 57 0.00 Arzier, Suisse
167 1062 BLANCHARD CHRISTIAN 06:32:51:00 F 16 0.00 Arçon, France
168 391 SCHWEIER KARL 06:32:54:00 F 21 0.00 FREIBURG, Allemagne
169 1057 YAO KILLIAN 06:33:38:00 C 38 0.00 grenoble, France
170 789 MENARD FRANCK 06:34:19:00 F 19 0.00 Sautron, France
171 1015 STADELMANN HUSHI SANDRA 06:34:20:00 AB 3 0.00 Courtételle, Suisse
172 1041 DURIEZ CHLOE 06:34:54:00 AB 4 0.00 Morges, Suisse
173 263 LAUSENAZ GRIS PATRICE 06:35:29:00 E 43 0.00 CHEVENOZ, France
174 399 GEISER CHRISTOPHE 06:36:16:00 E 44 0.00 VEX, Suisse
175 226 GAILLE LAURENT 06:36:23:00 E 46 0.00 CORSIER, Suisse
176 212 MCAULAY GAVIN 06:36:33:00 E 45 0.00 BINNINGEN, Suisse
177 769 MEMBRE ERIC 06:37:46:00 F 24 0.00 Chalais, Suisse
178 458 KLEINBERGEN JONAS 06:38:05:00 D 67 0.00 GRONINGEN, Pays-Bas
179 170 ANDERSEN MARTIN 06:38:08:00 C 35 0.00 Brøndby Strand, Danemark
180 169 LONG HARRY 06:38:20:00 C 40 0.00 ZURICH, Suisse
181 310 SCHLUSSEL MICHAEL 06:38:40:00 E 50 0.00 Brunnen, Suisse
182 379 MICHEL GREGOIRE 06:38:55:00 D 60 0.00 Châtel-St-Denis, Suisse
183 1144 BRON LUC 06:39:06:00 D 65 0.00 BEX, Suisse
184 1030 NANCHEN GERALD 06:39:11:00 F 25 0.00 Conthey, Suisse
185 563 BERTRON JEAN-FRANCOIS 06:39:13:00 F 23 0.00 MONTREUX, Suisse
186 935 EVEQUOZ PIERRE 06:39:38:00 D 63 0.00 Sierre, Suisse
187 963 QUELIN GERARD 06:39:40:00 G1 4 0.00 BONNEVILLE, France
188 279 BETRISEY ALBERT 06:40:06:00 F 26 0.00 AYENT, Suisse
189 846 GLAUSER CAROLINE 06:40:16:00 A 4 0.00 Fey, Suisse
190 709 TRIBEL LEO 06:40:17:00 C 41 0.00 Brie et angonnes, France
191 1082 VOIRIN JORDAN 06:40:22:00 C 39 0.00 Courgevaux, Suisse
192 852 IMPERATORI GABRIELE 06:40:26:00 F 28 0.00 Pollegio, Suisse
193 573 DARBELLAY AMBROISE 06:40:35:00 F 27 0.00 MARTIGNY, Suisse
194 833 MUYLLE SERGE 06:41:00:00 E 47 0.00 KEERBERGEN, Belgique
195 1069 VARONE BAPTISTE 06:42:06:00 XXX 1 0.00 Savièse, Suisse
196 37 GUEX STEPHANE 06:42:25:00 F 22 0.00 ,
197 321 KOLSTERS PETER 06:43:13:00 D 68 0.00 RIJSWIJK, Pays-Bas
198 377 MORARD CEDRIC 06:43:19:00 E 52 0.00 Réchy, Suisse
199 702 IMSTEPF FRED 06:44:08:00 D 74 0.00 SION, Suisse
200 600 BRATTER MARCEL 06:44:32:00 D 66 0.00 VERBIER, Suisse
201 422 BAERTSCH CHRISTIAN 06:45:12:00 D 64 0.00 Duillier, Suisse
202 477 CONSTANTIN KILIAN 06:45:16:00 D 70 0.00 Visp, Suisse
203 611 SEGERS ERIC 06:46:00:00 F 34 0.00 Kessel-Lo, Belgique
204 403 RACINE ANAELLE 06:46:17:00 AB 5 0.00 Arbaz , Suisse
205 155 STOECKLI DIDIER 06:46:28:00 E 53 0.00 LES CLES, Suisse
206 366 TOMBEZ VALENTIN 06:46:38:00 D 69 0.00 SAINT-AUBIN-SAUGES, Suisse
207 754 LEDERMANN CYRIL 06:47:42:00 D 72 0.00 LAUSANNE, Suisse
208 518 GABUS SEBASTIEN 06:47:46:00 D 71 0.00 Perly, Suisse
209 878 DAVIES ARWEL 06:47:49:00 E 51 0.00 Llandeilo, Royaume-Uni
210 581 VANDENBUSSCHE DAVID 06:48:09:00 E 55 0.00 KUURNE, Belgique
211 1071 MARIAUX JOEL 06:49:29:00 E 48 0.00 Muraz, Suisse
212 116 VAN BELLE KOEN 06:49:35:00 D 79 0.00 OVERIJSE, Belgique
213 464 LUKKEN STEFAN 06:49:35:00 D 84 0.00 Berghem, Pays-Bas
214 1023 DUINAT JULIEN 06:49:38:00 D 97 0.00 Savièse, Suisse
215 856 IMFELD TONO 06:49:41:00 F 32 0.00 Alpnach Dorf, France
216 987 REICHENBACH JEREMY 06:49:42:00 D 73 0.00 Martigny, Suisse
217 535 LAWSON TESS 06:49:57:00 A 5 0.00 MONTAGNIER, Suisse
218 1002 CHEVAILLER SAMUEL 06:50:02:00 E 54 0.00 CHAMPLAN, Suisse
219 786 MENON PATRICK 06:50:22:00 F 29 0.00 PUTEAUX, France
220 858 HAAPAINTNER SABINE 06:50:27:00 B 3 0.00 Sainte-Croix, Suisse
221 396 BAGNOUD GEOFFROY 06:50:31:00 C 42 0.00 Sion, France
222 716 DROOGENDIJK LEENDERT 06:50:36:00 D 77 0.00 SINT-NIKLAAS, Belgique
223 1096 CHERIX NICOLAS 06:50:44:00 D 80 0.00 Le Châble, Suisse
224 670 TILLER LUKAS 06:51:11:00 C 45 0.00 Epalinges, Suisse
225 333 SCHWARZ FABIEN 06:51:14:00 D 76 0.00 La Conversion, Suisse
226 889 MARKWALDER DANIEL 06:51:15:00 E 49 0.00 Weinfelden, Suisse
227 1068 ROULLEAU RICHARD 06:52:34:00 E 61 0.00 Lausanne, Suisse
228 364 WIERINGA MARC 06:52:45:00 E 62 0.00 WAGENINGEN, Pays-Bas
229 810 GOLLIN DEVIS 06:53:05:00 D 75 0.00 Steg, Suisse
230 751 HEINEMANN CHRISTIAN 06:53:17:00 E 59 0.00 Lippstadt, Allemagne
231 388 ROETER ESTHER 06:53:25:00 AB 6 0.00 Zürich, Suisse
232 952 BUEHLMANN TANJA 06:53:29:00 B 4 0.00 Baar, Suisse
233 899 ABMA ROY 06:53:58:00 E 57 0.00 Dordrecht, Pays-Bas
234 736 SCHALK LUCAS 06:54:37:00 D 85 0.00 Rijswijk, Pays-Bas
235 1027 PIASENTA GAEL 06:54:45:00 D 82 0.00 Chamoson, Suisse
236 26 RELKER JAN-WILLEM 06:54:53:00 F 30 0.00 ANKUM, Allemagne
237 608 KORSTEN GEERT 06:55:00:00 D 92 0.00 Geffen, Pays-Bas
238 449 BIJLEVELD JEROEN 06:55:10:00 F 37 0.00 WEERT, Pays-Bas
239 578 JOLLET BRUNO 06:55:12:00 F 36 0.00 DIVONNE-LES-BAINS, France
240 1127 MOSSI GIUSEPPE 06:55:19:00 F 35 0.00 Maggia, Suisse
241 881 GODET FLORENTIN 06:55:22:00 C 43 0.00 Saint Remy de Maurienne, France
242 792 MICHAUD ALAIN 06:55:23:00 G1 5 0.00 GEX, France
243 363 OUD KAREN 06:55:24:00 AB 7 0.00 AMSTERDAM, Pays-Bas
244 930 FERNANDES BRUNO 06:55:50:00 D 78 0.00 Crissier, Suisse
245 344 BORGOGNON LAURENT 06:55:53:00 D 81 0.00 Yverdon-les-Bains, Suisse
246 338 FRAGNIERE LOIC 06:56:03:00 C 47 0.00 Crans-montana, Suisse
247 651 BURGDORFER PIERRE-ALAIN 06:56:07:00 F 33 0.00 ST-LéGIER, Suisse
248 1097 THUNER MATTHIAS 06:56:33:00 E 58 0.00 Aeschlen, Suisse
249 919 FAVRE-VICTOIRE THIERRY 06:56:34:00 F 31 0.00 AMPHION LES BAINS, France
250 536 POCIECHA ADAM 06:57:39:00 E 56 0.00 Szczecin, Pologne
251 700 HOFFMANS LUC 06:58:35:00 C 49 0.00 Moergestel, Pays-Bas
252 730 MARQUES JOAO 06:58:56:00 D 86 0.00 Lausanne, Suisse
253 1008 PUGIN STEPHANE 06:58:59:00 E 60 0.00 Echarlens, Suisse
254 706 ZOBRIST FELIX 06:59:13:00 D 87 0.00 Zürich, Suisse
255 1091 VERDOODT GEERT 06:59:23:00 E 63 0.00 MERCHTEM, Belgique
256 765 RODUIT VINCENT 07:00:57:00 C 48 0.00 Chamoson, Suisse
257 997 WARGEE STEVEN 07:01:36:00 E 74 0.00 overijse, Belgique
258 869 TURNER EM 07:01:41:00 C 50 0.00 Warrington, Royaume-Uni
259 1077 OBERNESSER THOMAS 07:02:09:00 E 69 0.00 SCHLEITHAL, France
260 589 COENE STAN 07:02:11:00 E 68 0.00 Balegem, Belgique
261 136 RUFFAUT LOIC 07:02:19:00 B 5 0.00 NYON, Suisse
262 1070 DELPY PIERRE 07:02:28:00 F 38 0.00 SAINT-LEONARD, Suisse
263 620 GALLONE PATRICK 07:03:01:00 G2 1 0.00 DAVEZIEUX, France
264 614 SCHEFFER DANNY 07:03:37:00 E 64 0.00 Zoetermeer, Pays-Bas
265 1128 DUBUGNON CHRISTIAN 07:04:14:00 E 66 0.00 PRILLY, Suisse
266 1044 GRIVAT FRANCOIS 07:04:18:00 F 18 0.00 Orbe, Suisse
267 859 LEAVESLEY JAMES 07:04:40:00 E 70 0.00 Birmingham, Royaume-Uni
268 278 MEYS LUC 07:05:18:00 D 93 0.00 paris, France
269 1251 PRATELLI LUCA 07:05:23:00 D 95 0.00 Zurich, Suisse
270 655 PFEFFERLE BAPTISTE 07:06:08:00 D 90 0.00 SION, Suisse
271 755 ACHERMANN MATTHIAS 07:06:15:00 E 65 0.00 CHAMPéRY, Suisse
272 1095 HULMANN VINCENT 07:06:16:00 E 72 0.00 Yverdon-Les-Bains, Suisse
273 818 MUYLLE MICHEL 07:06:37:00 F 40 0.00 Keerbergen, Belgique
274 650 BERLIE PIERRE 07:07:10:00 G1 6 0.00 MURAZ (COLLOMBEY), Suisse
275 848 DESSEYN PIETER 07:07:14:00 D 88 0.00 Nederzwalm, Belgique
276 845 DREIER KURT 07:07:52:00 G2 2 0.00 VICQUES, Suisse
277 774 LUNEBOURG ALEXANDRE 07:08:29:00 E 71 0.00 Martigny, Suisse
278 1048 FAVRE JULIEN 07:08:31:00 E 67 0.00 Vuissens, Suisse
279 1115 JATON CLAUDE 07:08:33:00 F 45 0.00 Blonay, Suisse
280 427 BARBIER ALEXANDRE 07:09:00:00 D 89 0.00 LAUSANNE, Suisse
281 41 PRADY LOUIS 07:09:09:00 C 51 0.00 PARIS, France
282 34 ASTOLFI TIFFANY 07:09:25:00 A 6 0.00 CHƒTEL-ST-DENIS, Suisse
283 731 DUMAREST FRANCOIS 07:10:02:00 D 99 0.00 PARIS, France
284 1124 MIGNON LUC 07:10:05:00 F 50 0.00 MAMER, Luxembourg
285 217 THORUP CHRISTIAN-EMIL 07:10:12:00 D 62 0.00 Frederiksberg, Danemark
286 981 ELDER ANDREW 07:10:14:00 E 73 0.00 Le Chable, Royaume-Uni
287 822 PERONE DOMINIQUE 07:10:51:00 F 39 0.00 Jussy, Suisse
288 548 ZINN THOMAS 07:11:00:00 D 98 0.00 GRENOBLE, France
289 237 VAN DAEL BERRIE 07:11:17:00 F 43 0.00 Munstergeleen, Pays-Bas
290 171 NADAL Florian 07:11:24:00 E 75 0.00 COS, France
291 207 GUIBERT THIBAULT 07:11:31:00 C 55 0.00 PRéVERENGES, Suisse
292 223 REGLI ERIC 07:11:32:00 F 41 0.00 NEUCHâTEL, Suisse
293 145 CASTELO DANIEL 07:11:41:00 D 96 0.00 GENEVE, Suisse
294 1142 TABOURIN JEAN LOU 07:11:46:00 F 44 0.00 , Suisse
295 261 GOLOTSVAN KOSTIANTYN 07:11:55:00 D 91 0.00 Bertrange, Luxembourg
296 653 STUCKI ROLAND 07:12:08:00 C 52 0.00 Wahlendorf, Suisse
297 550 LAHRMANN CHRISTIAN 07:12:20:00 F 42 0.00 Silkeborg, Danemark
298 565 TE BOGT ARJAN 07:12:27:00 C 54 0.00 ENSCHEDE, Pays-Bas
299 592 DAUWE JAN 07:13:24:00 D 100 0.00 Gentbrugge, Belgique
300 319 TYTGAT WILLIAM 07:13:25:00 C 56 0.00 Mortsel, Belgique
301 583 GIROD DANIEL 07:13:37:00 F 47 0.00 LAUSANNE, Suisse
302 238 RONDA PAUL 07:13:55:00 F 46 0.00 Maastricht, Pays-Bas
303 874 LATTION JEAN-PIERRE 07:14:19:00 F 48 0.00 Orsières, France
304 750 ZIVEC JAKUB 07:14:31:00 C 57 0.00 Zurich, Suisse
305 711 HEMBERT ALEXANDRE 07:14:34:00 D 102 0.00 Paris, France
306 1078 HALDRUP STEFFEN 07:15:02:00 D 94 0.00 Basel, Suisse
307 636 SAXER ROLAND 07:15:14:00 E 76 0.00 Biel-Benken, Suisse
308 682 FRIEND GRAHAM 07:15:35:00 F 51 0.00 LE CHABLE, Suisse
309 571 HENCKAERTS JEAN MARIE 07:16:00:00 F 53 0.00 BOGIS BOSSEY, Suisse
310 688 MARCHAND JACQUES 07:16:00:00 F 49 0.00 Champlan, Suisse
311 969 VOUILLAMOZ EMILE 07:16:12:00 G1 7 0.00 Riddes, Suisse
312 483 REIMINK IVO 07:17:10:00 E 78 0.00 ZWOLLE, Pays-Bas
313 644 GRUNENWALD FRANCK 07:17:11:00 C 53 0.00 Colmar, France
314 823 ROGAL DAVID 07:17:36:00 C 61 0.00 Verbier, Suisse
315 1143 PEQUIGNOT CHANTAL 07:17:57:00 B 6 0.00 Delémont, Suisse
316 305 RICHARD DAMIEN 07:18:23:00 D 103 0.00 MARTIGNY, Suisse
317 218 Bagnoud Thierry 07:18:35:00 F 54 0.00 CAROUGE, Suisse
318 567 VERLINDEN JESSE 07:19:14:00 C 60 0.00 HEVERLEE, Belgique
319 1093 RAPPO FABRICE 07:19:16:00 E 80 0.00 VENTHôNE, Suisse
320 258 CRETTENAND OLIVIER 07:19:21:00 E 77 0.00 BASSE-NENDAZ, Suisse
321 1098 GRANGIER SAMUEL 07:19:35:00 C 62 0.00 Villars-sous-Mont, Suisse
322 714 BONTAZ RACHEL 07:19:44:00 AB 10 0.00 MARNAZ, France
323 802 BOJARSKA JOLANTA 07:19:44:00 AB 9 0.00 WALBRZYCH, Pologne
324 999 FREYMOND MARIN 07:19:47:00 D 107 0.00 Vuarrens, Suisse
325 979 FAVRE LIONEL 07:20:00:00 D 101 0.00 Lignerolle, Suisse
326 707 MICHEL ANDREW 07:20:17:00 D 104 0.00 Horgen, Suisse
327 372 COMTE ROMAIN 07:20:30:00 C 59 0.00 Treycovagnes, Suisse
328 227 MUSY OLIVIER 07:20:39:00 E 79 0.00 GRIMISUAT, Suisse
329 1108 SHAW ADRIAN 07:20:39:00 F 52 0.00 La tour de peilz, Suisse
330 417 FUITE JOHAN 07:20:41:00 E 81 0.00 Ens, Pays-Bas
331 6 DE CROOCK STEPHANE 07:20:51:00 E 83 0.00 Kruibeke, Belgique
332 265 MONNIER HERRMANN NATHALIE 07:20:58:00 AB 14 0.00 Ayent (Fortunau), Suisse
333 915 FELBABEL ERICH 07:20:58:00 E 82 0.00 gockhausen, Suisse
334 292 VAN DE KERKHOF ROBBERT 07:21:03:00 D 106 0.00 OISTERWIJK, Pays-Bas
335 793 CAVIN LIONEL 07:21:34:00 D 105 0.00 Burtigny, Suisse
336 277 EIJSSEN PAUL 07:22:00:00 D 112 0.00 Amsterdam, Pays-Bas
337 657 DE KORTE JOOST 07:22:08:00 C 63 0.00 Gorinchem, Pays-Bas
338 1135 LEVA GUILLAUME 07:22:26:00 C 58 0.00 La Tour-de-Trême, Suisse
339 639 LOCHER ANNELISE 07:22:52:00 AB 13 0.00 Le Châble/VS, Suisse
340 402 VAN LOOVEREN PAUL 07:22:54:00 F 60 0.00 WUUSTWEZEL, Belgique
341 180 GOODWIN VICKI 07:23:00:00 AB 12 0.00 PLAN-LES-OUATES, Suisse
342 109 MCALINDEN DENIS 07:23:01:00 E 84 0.00 LAUSANNE, Suisse
343 742 MORANDI XAVIER 07:23:37:00 C 65 0.00 Morges, Suisse
344 444 GOMPERTS ALEXANDER 07:23:38:00 D 114 0.00 Zürich, Suisse
345 231 PERLER PAUL 07:23:42:00 F 55 0.00 VISP, Suisse
346 225 BECHI OLIVIER 07:23:50:00 E 85 0.00 Paris, France
347 1053 ISOZ STEEVE 07:24:08:00 D 116 0.00 Forel, Suisse
348 843 FIGUEIRA SERGE 07:24:10:00 E 88 0.00 SION, Suisse
349 703 MICHELOUD YANNICK MARIE IDA 07:24:59:00 AB 11 0.00 BRAMOIS, Suisse
350 1075 BAUWENS LUDOVIC 07:25:21:00 D 109 0.00 Bulle, Suisse
351 22 VAN ELDEREN PETER 07:25:36:00 F 57 0.00 BEST, Pays-Bas
352 1139 GAUGLER YANNICK 07:25:57:00 D 118 0.00 Basel, Suisse
353 1129 GENTILINI STEFANO 07:26:11:00 F 56 0.00 Echandens, Suisse
354 960 BONIFETTO GIOVANNI 07:26:13:00 D 110 0.00 Lausanne, Suisse
355 819 SASSO MARINO 07:26:53:00 F 59 0.00 DELEMONT, Suisse
356 419 FONTAINE NICOLAS 07:26:57:00 E 86 0.00 Bottens, Suisse
357 612 VAN HEDDEGEM LIES 07:26:59:00 AB 15 0.00 Kessel-Lo, Belgique
358 851 SCHUTZ DAVID 07:27:31:00 E 87 0.00 SIERRE, Suisse
359 547 CHAUVEAU PATRICK 07:27:56:00 F 61 0.00 GENèVE, Suisse
360 330 CETTOU GUILLAUME 07:27:58:00 D 111 0.00 Luzern, Suisse
361 669 SEDGWICK ADAM 07:28:14:00 E 90 0.00 VERSEGERES, Suisse
362 933 CLAESSENS THOMAS 07:28:14:00 D 108 0.00 BASSE-NENDAZ, Suisse
363 579 ZANINI FLAVIO 07:28:44:00 E 91 0.00 GRIMISUAT, Suisse
364 570 LONFAT FLORIAN 07:29:07:00 C 44 0.00 CHARRAT, Suisse
365 595 ROH PATRICK 07:29:10:00 E 94 0.00 ERDE, Suisse
366 983 BOWYER PAUL 07:30:09:00 E 89 0.00 Paris, France
367 283 SCHIMMEL JACCO 07:30:27:00 E 96 0.00 BOSCOOP, Pays-Bas
368 353 SAUCY YVAN 07:30:46:00 F 64 0.00 VICQUES, Suisse
369 1134 KOHLER THOMAS 07:31:20:00 C 64 0.00 Carouge (GE), Suisse
370 1040 BALMER YVES 07:31:34:00 E 93 0.00 VEYRAS, Suisse
371 97 VAN GANSEN KRISTOF 07:31:45:00 C 83 0.00 Scherpenheuvel, Belgique
372 844 NIEL DIDIER 07:32:09:00 D 113 0.00 St Gervais/le Fayet, France
373 1080 DE VLEESCHAUWER JAN 07:32:13:00 D 120 0.00 ZOERSEL, Belgique
374 887 SCHWEIZER MELINA 07:33:16:00 A 7 0.00 Thun, Suisse
375 588 DAUBOIN ERIC 07:33:26:00 F 58 0.00 LE NEUFBOURG, France
376 1110 REY MAXY 07:33:45:00 F 67 0.00 FLANTHEY, Suisse
377 862 REINERT CYRIL 07:33:58:00 C 66 0.00 Sierre, Suisse
378 790 KARENS MARTIN 07:34:06:00 D 115 0.00 KESTEREN, Pays-Bas
379 141 BORMS CHRISTOPHE 07:34:18:00 E 104 0.00 BAZEL, Belgique
380 490 LUTTICH MARTIN 07:34:18:00 D 119 0.00 GöTTINGEN, Allemagne
381 472 VERHAERT KRIS 07:34:23:00 F 62 0.00 Rijkevorsel, Belgique
382 350 PEREIRA MIGUEL 07:34:34:00 D 117 0.00 GENEVE, Suisse
383 758 GAILLAND STEVE 07:34:37:00 C 67 0.00 Versegeres, Suisse
384 569 SALLIN DIMITRI 07:34:44:00 D 126 0.00 Le Pâquier, Suisse
385 340 AMSTEIN LUCA 07:34:54:00 C 69 0.00 Penthéréaz, Suisse
386 691 FERREIRA PINTO FRANCISCO 07:35:15:00 E 92 0.00 Orbe, Suisse
387 695 OGGIER PIERRE MICHEL 07:35:17:00 F 75 0.00 Vétroz, Suisse
388 173 IVERSEN TROELS 07:35:21:00 C 46 0.00 Frederiksberg, Danemark
389 847 GILLIERON FRANCOIS 07:35:45:00 E 95 0.00 YVERDON-LES-BAINS, Suisse
390 288 SCHIMMEL YANNICK 07:35:46:00 C 71 0.00 Gouda, Pays-Bas
391 685 TUFAROLO GIOVANNI 07:35:50:00 G1 8 0.00 SIERRE, Suisse
392 863 BERTARELLI CARLO 07:36:11:00 F 66 0.00 CESANO MADERNO MB, Italie
393 640 HIROZ MICHEL 07:36:36:00 E 97 0.00 Le Châble, Suisse
394 892 BOUCHARD PATRICK 07:37:17:00 F 70 0.00 zug, Suisse
395 631 FERNANDES PAULO DANIEL 07:37:30:00 F 72 0.00 CHALAIS, Suisse
396 693 WICKI JACQUES 07:37:42:00 F 65 0.00 PORRENTRUY, Suisse
397 315 LANGEL ALAIN 07:38:03:00 F 74 0.00 COURRROUX, Suisse
398 831 GUDEL TILL 07:38:03:00 D 123 0.00 Bolligen, Suisse
399 1047 RUIZ RAFAEL 07:38:12:00 D 127 0.00 Bramois, Suisse
400 361 MERCIER JEAN CLAUDE 07:38:20:00 G2 3 0.00 CHAMONIX, France
401 538 SCHOUTEN HENDRIK 07:38:30:00 D 128 0.00 ijsselstein, Pays-Bas
402 861 SANJUAN AUGUSTIN 07:38:48:00 F 63 0.00 Yverdon-les-Bains, Suisse
403 324 JONG DENNIS 07:38:57:00 D 124 0.00 Utrecht, Pays-Bas
404 270 SIGGEN JEROME 07:39:21:00 D 129 0.00 Savièse, Suisse
405 516 MARTIN GREGOIRE 07:39:53:00 C 68 0.00 CLERMONT FERRAND, France
406 629 RUCHTI JACQUES 07:40:27:00 D 125 0.00 Bonvillars, Suisse
407 699 OP T HOOG ERIC 07:40:29:00 C 74 0.00 Moergestel, Pays-Bas
408 351 FARIA M RIO 07:40:46:00 F 68 0.00 MEYRIN, Suisse
409 381 SOGUEL LOIC 07:41:06:00 D 134 0.00 INS, Suisse
410 920 ENDIGNOUX GUILLAUME 07:41:45:00 C 72 0.00 Zurich, Suisse
411 554 BECHET DIDIER 07:41:47:00 F 69 0.00 ROMAGNY, France
412 336 MORET CLAUDE-ALAIN 07:41:56:00 E 98 0.00 UVRIER, Suisse
413 203 Rais Manuel 07:42:07:00 D 132 0.00 Neuchâtel, Suisse
414 348 DUBUIS OLIVIER 07:42:37:00 F 71 0.00 CONTHEY, Suisse
415 280 STEENHUIS ROGIER 07:42:54:00 D 130 0.00 Haarlem, Pays-Bas
416 741 FISCHER HEINZ 07:42:55:00 F 73 0.00 Schönbühl, Suisse
417 626 VAN VLIERDEN MAXIM 07:43:27:00 C 70 0.00 Antwerpen, Belgique
418 301 FOURNIER JEROME 07:43:45:00 G1 10 0.00 MARTIGNY, Suisse
419 420 VAN DE WETERING DOUWE 07:45:12:00 D 122 0.00 Amsterdam, Pays-Bas
420 662 BRUTTIN JEAN-MARC 07:45:12:00 F 78 0.00 SION, Suisse
421 1123 BRODARD JOHANN 07:45:20:00 C 75 0.00 , Suisse
422 245 PAPILLOUD FRANK 07:45:26:00 E 99 0.00 Vétroz, Suisse
423 1052 METRAILLER DAMIEN 07:45:31:00 F 77 0.00 Evolène, Suisse
424 1021 BOONSTRA KAREL 07:45:37:00 E 106 0.00 Soesterberg, Pays-Bas
425 564 TE BOGT MARTIJN 07:45:54:00 C 73 0.00 Nijmegen, Pays-Bas
426 909 VERCRUYSSE MATHIAS 07:46:06:00 D 136 0.00 Stekene, Belgique
427 199 BRUTTIN STEVE 07:46:29:00 E 100 0.00 SIERRE, Suisse
428 1104 KAMBLI ROLF 07:46:30:00 F 82 0.00 Aminona, Suisse
429 525 HUGHES MATTHEW 07:47:10:00 D 131 0.00 Martigny, Suisse
430 679 JAQUET MICHEL 07:47:23:00 F 76 0.00 Lindau, Suisse
431 785 VAN DIJK KOEN 07:47:34:00 D 121 0.00 AMSTERDAM, Pays-Bas
432 646 ODAGLIA GIOVANNI 07:47:45:00 D 133 0.00 Crans-Montana, Suisse
433 322 RUIJS VICTORIA 07:47:50:00 AB 8 0.00 Utrecht, Pays-Bas
434 106 RAATS GUNTHER 07:48:08:00 D 153 0.00 KALMTHOUT, Belgique
435 888 BOHNENBLUST MICHAEL 07:48:10:00 E 101 0.00 Wichtrach, Suisse
436 453 VAN DEN OUTENAAR MAARTEN 07:48:31:00 D 137 0.00 Amsterdam, Pays-Bas
437 738 MICHAUD STEPHANE 07:48:59:00 E 103 0.00 Crans-Montana, Suisse
438 998 MARCIONETTI MICHEL 07:49:26:00 D 141 0.00 SEMIONE, Suisse
439 123 KEARNEY JOE 07:49:36:00 D 135 0.00 LONDON, France
440 1029 KANZIG GERHARD 07:49:51:00 F 79 0.00 Wiedlisbach, Suisse
441 210 BIALAS PHILIPPE 07:49:56:00 E 115 0.00 Zurich, Suisse
442 675 MARTINEZ WILLIAM 07:50:14:00 E 117 0.00 Vétroz, Suisse
443 701 GOMEZ PABLO 07:50:14:00 E 107 0.00 Gland, Suisse
444 864 BRITSCHGI ALOIS 07:50:18:00 F 81 0.00 Giswil, Suisse
445 779 REDEGHIERI GIORGIO 07:50:33:00 G1 9 0.00 toano, Italie
446 866 GERMANIER ALEXANDRE 07:50:34:00 E 109 0.00 Sion, Suisse
447 825 INFANTOLINO SEBASTIEN 07:50:52:00 E 108 0.00 Trélex, Suisse
448 1112 VANDOMMELE PIETER 07:51:32:00 D 138 0.00 Wevelgem, Belgique
449 201 HODGE ANDREW 07:51:37:00 E 110 0.00 BIRMINGHAM, Royaume-Uni
450 697 BOSCH LUC 07:51:40:00 F 84 0.00 Bruges, Belgique
451 509 RODUIT CHRISTELLE 07:51:47:00 A 8 0.00 FULLY, Suisse
452 734 MORARD LUCAS 07:51:50:00 D 139 0.00 Lens, Suisse
453 929 THORIN JEAN-MARC 07:52:24:00 D 140 0.00 LAUSANNE, Suisse
454 38 DONZE JULIEN 07:52:56:00 E 105 0.00 COURFAIVRE, Suisse
455 616 JUUL-ANDERSEN JEPPE 07:53:09:00 E 112 0.00 Glumsø, Danemark
456 1038 MONNARD YVES 07:53:23:00 F 80 0.00 ARCHAMPS, France
457 519 VANDENBROUCKE DIETER 07:53:24:00 E 113 0.00 Waardamme, Belgique
458 605 VAN NISTELROOIJ TIJS 07:53:49:00 D 146 0.00 Geffen, Pays-Bas
459 257 MENOUD LAURENT 07:54:37:00 E 111 0.00 BOSSONNENS, Suisse
460 1111 GONCALVES SAMUEL 07:54:37:00 F 83 0.00 bossonnens, Suisse
461 343 MOISAN THIERRY 07:55:15:00 F 85 0.00 CHAMOSON, Suisse
462 842 CAMPOS PEDRO 07:56:06:00 D 142 0.00 SION, Suisse
463 900 LACOTTE LIONEL 07:56:14:00 E 119 0.00 Ecublens FR, Suisse
464 539 GERY CORENTIN 07:56:39:00 C 77 0.00 Chamalières, France
465 514 DEACON MARK 07:56:48:00 G1 11 0.00 Edinburgh, Royaume-Uni
466 575 LEGON SKYE 07:56:49:00 E 116 0.00 Penthéréaz, Suisse
467 1225 BONGARD JULIEN 07:57:34:00 C 76 0.00 Payerne, Suisse
468 486 GROSSENBACHER BRYAN 07:57:38:00 D 148 0.00 Neuchâtel, Suisse
469 240 VAN DOP LAURA 07:57:50:00 A 11 0.00 Amsterdam, Pays-Bas
470 40 POCHON SAMUEL 07:58:17:00 D 143 0.00 VERSEGERES, Suisse
471 607 SCHEL GERWIN 07:58:29:00 E 121 0.00 Nuland, Pays-Bas
472 690 HUBER RAFAEL 07:58:29:00 F 88 0.00 CAROUGE, Suisse
473 973 JACQUOD JEAN-MARC 07:58:53:00 E 125 0.00 Bramois, Suisse
474 1055 SOUSA RICARDO 07:59:06:00 D 144 0.00 CRANS MONTANA, Suisse
475 635 GEERING CHRISTOPH 07:59:50:00 E 120 0.00 Bottmingen, Suisse
476 800 CAILLAUD JEROME 07:59:57:00 E 122 0.00 Paudex, Suisse
477 88 BASCOP PASCAL 08:00:02:00 F 86 0.00 ROANNE, France
478 737 LATTION PATRICK 08:00:45:00 F 89 0.00 Orsières, Suisse
479 962 CHAVANNES ALEXANDRE 08:00:45:00 E 126 0.00 Gryon, Suisse
480 448 VIDEIRA TOZE 08:01:06:00 E 118 0.00 Sierre, Suisse
481 156 EBENER CHRISTOPHE 08:02:01:00 E 114 0.00 VERBIER, Suisse
482 951 KAISER DANIEL 08:02:32:00 F 87 0.00 RIEHEN, Suisse
483 895 PLATEL OLIVIER 08:02:42:00 D 145 0.00 La chaux de fonds, Suisse
484 896 PLATEL FRANCIS 08:02:46:00 G2 4 0.00 Sainte marie aux chénes, France
485 748 VAN HERK DENNIS 08:02:57:00 D 149 0.00 Den Haag, Pays-Bas
486 354 STEVENS LEWIS 08:03:27:00 D 154 0.00 London, Royaume-Uni
487 253 ARNOLD CHRISTIAN 08:03:56:00 E 133 0.00 Vétroz, Suisse
488 122 Ahmt Tom 08:04:15:00 F 93 0.00 Haderslev, Danemark
489 824 COLCLOUGH CHLOE 08:04:22:00 A 10 0.00 Verbier, Suisse
490 799 KESSLER ROLF 08:04:54:00 F 90 0.00 Bern, Suisse
491 1089 VAN DE VOORDE MARCEL 08:05:11:00 F 91 0.00 Breda, Pays-Bas
492 1109 ERARD ANDRE 08:05:14:00 F 97 0.00 MONTHEY, Suisse
493 362 BIOLLAZ JEAN-MICHEL 08:05:26:00 F 92 0.00 BRAMOIS, Suisse
494 1051 GROSSENBACHER STEVE 08:05:39:00 D 157 0.00 VOUVRY, Suisse
495 1099 VAN DEN BULKE KEN 08:05:41:00 E 134 0.00 Opvelp / België, Belgique
496 1100 CAUWENBERGH KATJA 08:05:41:00 AB 18 0.00 Opvelp, Belgique
497 898 NIELSEN JESPER RINGVAD 08:06:08:00 F 94 0.00 BEIDWEILER, Luxembourg
498 925 VERVY QUENTIN 08:06:29:00 D 152 0.00 SOMZÉE, Belgique
499 853 VANDERWEGEN KRISTOF 08:06:59:00 D 155 0.00 Meise, Belgique
500 368 MERILLAT YOAN 08:07:02:00 C 78 0.00 Bienne, Suisse
501 977 DONZE ANNE LAURE 08:07:08:00 A 9 0.00 COURFAIVRE, SUISSE
502 956 FERREIRA AGOSTINHO 08:07:15:00 E 132 0.00 Martigny, Suisse
503 879 CONTINI DALLMANN DANIEL 08:07:56:00 D 156 0.00 TRENTO, Italie
504 633 MOREX SYLVAIN 08:07:57:00 E 123 0.00 GRYON, Suisse
505 766 MICHIELS STEPHAN 08:08:06:00 D 150 0.00 Sinaai, Belgique
506 854 KUCHLER MARKUS 08:09:07:00 F 96 0.00 SARNEN, Suisse
507 838 CORVAGLIA PARIDE 08:09:10:00 E 124 0.00 BRAMOIS, Suisse
508 1113 DOORNEBOSCH NATASCHA 08:10:48:00 AB 16 0.00 Epe, Pays-Bas
509 1001 FERRARI PASCAL 08:10:58:00 F 99 0.00 Bassins, Suisse
510 200 COUTURE CHRISTOPHE 08:11:01:00 E 145 0.00 COLOGNY, Suisse
511 812 MENU RAPHAEL 08:11:01:00 D 151 0.00 Saint Nicolas de Port, France
512 1035 COPPEY GREGOIRE 08:11:19:00 F 102 0.00 Monthey, Suisse
513 993 REY PIERRE-ALAIN 08:11:26:00 F 95 0.00 Montana, Suisse
514 93 BALBOURG THIERRY 08:11:31:00 F 103 0.00 Liège, Belgique
515 880 GODET JEREMY 08:11:34:00 D 147 0.00 Saint Avre sur la chambre, France
516 694 PIERRAT LUCAS 08:11:42:00 C 79 0.00 Saint-Louis, France
517 941 ZUFFEREY ROXANE 08:11:47:00 AB 17 0.00 Venthône, Suisse
518 907 MEYER AARON 08:12:13:00 E 135 0.00 Crans pres celigny, Suisse
519 906 MCVEY JOHN 08:12:15:00 E 136 0.00 Geneva, Suisse
520 35 EYCKMANS NICOLAS 08:12:34:00 C 80 0.00 , Suisse
521 617 KAAE THOMAS 08:12:39:00 E 130 0.00 Glumsø, Danemark
522 643 CARTON TOM 08:13:20:00 C 81 0.00 Haute-Nendaz, Suisse
523 908 LARRAZ CHRISTOPHER 08:13:39:00 F 98 0.00 VESSY, Suisse
524 341 RICHARD BERTRAND 08:13:47:00 D 158 0.00 UVRIER, Suisse
525 101 TURNA ADEN 08:13:52:00 D 162 0.00 Geneva, Suisse
526 552 BAAN WOUTER 08:13:55:00 E 127 0.00 Utrecht, Pays-Bas
527 352 ROBERTS KEITH 08:14:03:00 E 129 0.00 Upper Bentley, Royaume-Uni
528 229 FELLAY RAYMOND 08:14:36:00 F 101 0.00 FULLY, Suisse
529 830 WALL PATRICK 08:14:46:00 D 160 0.00 Genève, Suisse
530 357 MACHEFERT JENNIFER 08:16:05:00 A 12 0.00 Nevers, France
531 166 Mann Edward 08:16:22:00 D 159 0.00 Vesenaz, Suisse
532 794 MAY FLORENT 08:16:33:00 E 138 0.00 BRAMOIS, Suisse
533 634 VALOIS ALLAN 08:16:47:00 C 82 0.00 HAUTE-NENDAZ, Suisse
534 872 BOS MARTIN 08:16:47:00 F 105 0.00 ZAANDAM, Pays-Bas
535 445 FAYE GUILLAUME 08:17:15:00 E 128 0.00 CROIX SAINT LEUFROY (LA), France
536 342 VAN DER HOEVEN VINCENT 08:17:44:00 E 131 0.00 SAINT-VALERY-EN-CAUX, France
537 395 MONOD JULIEN 08:17:52:00 E 137 0.00 FULLY, Suisse
538 407 FREDERIC FREDERIC 08:18:05:00 F 107 0.00 Heverlee, Belgique
539 339 VIONNET ETIENNE 08:18:06:00 C 85 0.00 Morges, Suisse
540 1059 SALINA ALDO 08:18:14:00 G1 12 0.00 UVRIER, Suisse
541 1074 PERROUD PASCAL 08:18:15:00 D 161 0.00 Duillier, Suisse
542 115 LOXTON VICTORIA 08:18:41:00 A 13 0.00 GENEVE, Suisse
543 1043 KELLER SAMUEL 08:18:50:00 D 163 0.00 Ravoire, Suisse
544 505 PORTEOUS GORDON 08:19:06:00 D 168 0.00 Le Châble, Suisse
545 104 PULLES TOM 08:19:51:00 E 144 0.00 Unterageri, Suisse
546 773 BERAS GUY 08:19:58:00 G2 5 0.00 SAUGNAC ET CAMBRAN, France
547 39 DIELEMAN JAN 08:20:25:00 E 139 0.00 VESENAZ, Suisse
548 7 DOUTRELOIGNE WIM 08:20:40:00 E 102 0.00 OUDENAARDE, Belgique
549 404 GUARISCO ROMANO 08:21:00:00 G1 13 0.00 Anières, Suisse
550 572 ANTILLE PIERRE 08:21:05:00 E 143 0.00 Saillon, Suisse
551 447 KRISTENSEN ALLAN RAVNKILDE 08:21:07:00 F 106 0.00 KARLSLUNDE, Danemark
552 936 BUIST KLAAS 08:21:16:00 F 112 0.00 Nijkerk, Pays-Bas
553 590 LAGREVE JEAN-CLAUDE 08:21:22:00 F 100 0.00 romagny, France
554 835 WALPEN RAPHAEL 08:21:26:00 F 108 0.00 Bramois, Suisse
555 268 VAN DOORN MICHIEL 08:22:01:00 E 140 0.00 AMSTERDAM, Pays-Bas
556 160 BRIGGS KIMBERLEY 08:22:27:00 D 167 0.00 EAGLESFIELD, Royaume-Uni
557 99 DE ROOIJ EPHRAIM 08:22:49:00 F 104 0.00 Tolbert, Pays-Bas
558 658 COUPEZ FREDERIC 08:23:02:00 E 142 0.00 Chemin, Suisse
559 735 DIAZ BOLADO ÁLVARO 08:23:22:00 D 164 0.00 Chigny, Suisse
560 461 RITTER NIKOLAJ 08:23:24:00 C 84 0.00 Frederiksberg, Danemark
561 996 DESMET TOM 08:23:25:00 E 146 0.00 Wemmel, Belgique
562 459 REINDERS MARK 08:23:48:00 D 165 0.00 Groenlo, Pays-Bas
563 982 GORMLEY JOSH 08:23:54:00 E 141 0.00 Le Chable, États-Unis
564 406 NEVEN INGE 08:24:29:00 AB 19 0.00 HEVERLEE, Belgique
565 1200 DEDENIS MICKAEL 08:25:31:00 C 86 0.00 GENEVE, Suisse
566 1033 DELVES JOE 08:25:34:00 D 166 0.00 London, Royaume-Uni
567 698 DE LAERE KOEN 08:25:44:00 F 110 0.00 Brugge, Belgique
568 1201 VERDIER JEAN-FRANCOIS 08:26:20:00 D 169 0.00 GENEVE, Suisse
569 926 BOLKS JAN 08:26:40:00 E 147 0.00 Nijkerk, Pays-Bas
570 1116 SOMMARIVA LAURA 08:26:40:00 AB 20 0.00 Leysin, Suisse
571 574 DONOHUE CHANTAL 08:26:57:00 AB 21 0.00 TANNAY, Suisse
572 1102 KRATKY MAREK 08:27:07:00 C 87 0.00 Partizanske, Slovaquie
573 606 ROMME ERIK 08:27:24:00 E 149 0.00 Geffen, Pays-Bas
574 834 BEREVOESCU RADU 08:27:28:00 D 170 0.00 Bucuresti, 4, Roumanie
575 392 MOLYNEAUX NICHOLAS 08:27:47:00 D 175 0.00 BLONAY, Suisse
576 189 RAULT STEPHANE 08:28:32:00 F 111 0.00 NANTES, France
577 267 Van Wonderen Niels 08:29:16:00 E 148 0.00 Diemen, Pays-Bas
578 816 PAPAUX LAURENT 08:29:25:00 E 152 0.00 Chardonne, Suisse
579 440 JEHOTTE NICOLAS 08:29:34:00 D 172 0.00 Lausanne, Suisse
580 540 DESSIMOZ JEAN-MICHEL 08:29:37:00 F 109 0.00 Sion, Suisse
581 729 GOMEZ JAVIER 08:29:39:00 E 150 0.00 Sion, Suisse
582 390 ARDOINO GIANNI 08:30:49:00 F 115 0.00 MURTEN, Suisse
583 232 LONGCHAMP OLIVIER 08:31:03:00 F 117 0.00 Martigny-Croix, Suisse
584 208 NUNES CARLOS 08:31:20:00 G1 15 0.00 SION, Suisse
585 1058 SALMON JON 08:31:32:00 D 171 0.00 COGGESHALL, Royaume-Uni
586 544 GLADY STEPHANIE 08:31:37:00 AB 22 0.00 Alissas, France
587 972 DEPREZ MARTINE 08:31:40:00 B 7 0.00 HEVERLEE, Belgique
588 69 DICKHOUT JAN 08:31:43:00 G2 6 0.00 EINDHOVEN, Pays-Bas
589 42 ANKEN UELI 08:31:59:00 F 113 0.00 ROMANEL-SUR-MORGES, Suisse
590 308 CRETTON PIERRE-ANDRE 08:32:48:00 F 120 0.00 MARTIGNY-CROIX, Suisse
591 839 BRUENGGER MARKUS 08:33:24:00 F 114 0.00 Shanghai, Chine
592 562 BIOLAZ BERTRAND 08:33:29:00 F 121 0.00 CHARRAT, Suisse
593 912 POULSEN PER HJORTH 08:33:50:00 F 118 0.00 København S, Danemark
594 1094 TECHER JEAN-LOUIS 08:33:55:00 F 119 0.00 Paris, France
595 272 HAZENBERG THOMAS 08:34:02:00 D 173 0.00 s-Hertogenbosch, Pays-Bas
596 228 FELLAY CHRISTINE 08:34:20:00 B 8 0.00 FULLY, Suisse
597 942 FELLAY GAETAN 08:34:44:00 E 151 0.00 VERBIER, Suisse
598 560 MELOT STEPHANE 08:35:45:00 F 116 0.00 LE TEILLEUL, France
599 717 SCHOLTEN ARN 08:35:52:00 C 88 0.00 Middelbeers, Pays-Bas
600 296 PENOT CAMILLE 08:36:20:00 A 14 0.00 Les Geneveys-sur-Coffrane, Suisse
601 913 BINTZ MICHELLE 08:36:37:00 AB 23 0.00 Sierre, Suisse
602 411 STEYAERT LUC 08:37:09:00 F 122 0.00 EEKLO, Belgique
603 469 DE MARET TAK VICTOR 08:37:09:00 E 153 0.00 Arnhem, Pays-Bas
604 971 VAN GERVEN STEFAAN 08:37:21:00 F 123 0.00 HEVERLEE, Belgique
605 409 FAVEY YVAN 08:37:40:00 E 156 0.00 Torgon, Suisse
606 787 PAULSEN HENRIKE 08:37:57:00 A 15 0.00 Basel, Suisse
607 561 FOURNIER DOMINIQUE 08:38:18:00 E 154 0.00 Bramois, Suisse
608 661 MORA ISABELLE 08:38:22:00 AB 24 0.00 Blignou, Suisse
609 1140 PATERSON WILLIAM 08:38:31:00 D 176 0.00 London, Royaume-Uni
610 29 PEEL YATES HARRY 08:38:32:00 C 89 0.00 London, Royaume-Uni
611 1131 AMBIAUX BERNARD 08:39:30:00 G2 7 0.00 Blonay, Suisse
612 219 SOLCA LOIC 08:39:52:00 D 177 0.00 Neuchâtel, Suisse
613 625 SIEGENTHALER JEAN-PIERRE 08:40:07:00 F 127 0.00 Neyruz, Suisse
614 832 ROBYR BERNARD ALDO 08:40:08:00 F 128 0.00 Chermignon, Suisse
615 918 BUIREY MATHIEU 08:40:22:00 D 174 0.00 Les Villedieu, France
616 196 BISGAARD HENRIK 08:40:24:00 F 124 0.00 Holte, Danemark
617 142 WINTER VIV 08:41:42:00 B 10 0.00 WHITEHAVEN, Royaume-Uni
618 204 ROSSIER ROMAIN 08:42:25:00 G1 16 0.00 VEX, Suisse
619 28 FLYGARE ANDRE 08:42:30:00 E 155 0.00 DUESSELDORF, Allemagne
620 757 BURKI ISABELLE 08:43:02:00 B 9 0.00 troistorrents, France
621 756 MEZENEN DIDIER 08:43:03:00 G1 17 0.00 pompaples, Suisse
622 624 COENE MARC 08:43:47:00 F 126 0.00 Chimay, Belgique
623 705 BONVIN RENE 08:44:04:00 F 125 0.00 AYENT, Suisse
624 770 CHABBEY YVES 08:44:09:00 G1 19 0.00 Ayent, Suisse
625 815 RODDE ALAIN 08:47:20:00 G1 18 0.00 RAMELDANGE, Luxembourg
626 103 HENDERSON NOEL 08:47:51:00 E 157 0.00 RIVERIE, France
627 323 MEERSMAN BRAM 08:47:52:00 D 178 0.00 KAGGEVINNE, Belgique
628 394 MORAND DIDIER 08:47:58:00 F 132 0.00 GENEVE, Suisse
629 739 VAN HAL RENS 08:48:40:00 D 179 0.00 Moergestel, Pays-Bas
630 609 VLUG MARCEL 08:48:46:00 F 131 0.00 Bilthoven, Pays-Bas
631 1022 VIELLE GERARD 08:51:33:00 G2 8 0.00 Delémont, Suisse
632 484 FARDEL JESSICA 08:51:45:00 AB 25 0.00 Sierre, Suisse
633 105 LOOS KATRIN 08:52:02:00 AB 28 0.00 KALMTHOUT, Belgique
634 726 LAVOIPIERRE ALEXIS 08:52:39:00 C 90 0.00 FLAMANVILLE, France
635 466 LANZONI STEFANO 08:53:50:00 F 130 0.00 IMOLA, Italie
636 820 LEE EDWARD 08:53:58:00 D 180 0.00 Stockholm, Suède
637 424 HERMENS ELLEN 08:54:25:00 A 16 0.00 Vlijmen, Pays-Bas
638 764 MOREAU ALEXANDRE 08:55:06:00 C 92 0.00 Lausanne, Suisse
639 939 JURASINSKI MAREK 08:55:08:00 E 164 0.00 Edinburgh, Royaume-Uni
640 557 PASCUCCI OSTILIO 08:55:29:00 F 129 0.00 cingoli, Italie
641 566 TE MOLDER DAAN 08:55:34:00 C 91 0.00 Enschede, Pays-Bas
642 599 ROH ERIC 08:55:38:00 E 160 0.00 AVEN, Suisse
643 1086 MACHOUD STEPHANE 08:56:02:00 F 136 0.00 Le Châble, Suisse
644 211 Bernard Mathieu 08:56:31:00 E 159 0.00 Lausanne, Suisse
645 827 LEIJTEN PETER 08:56:31:00 F 133 0.00 ZEVENBERGEN, Pays-Bas
646 725 AUSSAGE ADELINE 08:56:33:00 A 17 0.00 FLAMANVILLE, France
647 1090 LHOMME STEPHANIE 08:56:55:00 AB 27 0.00 BOULOGNE BILLANCOURT, France
648 743 MEIER JURG 08:57:08:00 E 158 0.00 Brig, Suisse
649 597 CHAUVET CLARA 08:57:42:00 A 18 0.00 AVEN, Suisse
650 300 CASTANER MARC 08:57:46:00 D 184 0.00 PETIT-LANCY, Suisse
651 312 RENDA GIUSEPPE 08:57:57:00 E 161 0.00 AYENT, Suisse
652 1107 BAUMGARTNER ALAIN 08:58:25:00 G1 20 0.00 Genève, Suisse
653 462 GUILLE CHRISTOPHE 08:58:29:00 G1 14 0.00 Itegem, Belgique
654 721 RAESS KURT 08:58:35:00 F 134 0.00 GLETTERENS, Suisse
655 1120 AYER MATHIEU 08:58:41:00 D 183 0.00 NEYRUZ, Suisse
656 246 HOLLEBOOM JULES 09:00:14:00 D 185 0.00 ROTTERDAM, Pays-Bas
657 946 EBBING MICHIEL 09:00:15:00 D 186 0.00 Amsterdam, Pays-Bas
658 783 DE LAAT DENNIS 09:00:32:00 D 181 0.00 Moergestel, Pays-Bas
659 603 SCHAEP JOHAN 09:00:43:00 E 167 0.00 Torhout, Belgique
660 271 WALLYN KAREL 09:00:45:00 E 162 0.00 ANZEGEM, Belgique
661 949 PITTELOUD NICOLAS 09:01:41:00 F 137 0.00 APROZ, Suisse
662 400 MCKELLAR BLAIR 09:02:41:00 E 169 0.00 Hamilton, Royaume-Uni
663 1064 HOFMANN GILLIOZ VERONIQUE 09:03:33:00 AB 26 0.00 SAVIèSE, Suisse
664 965 TERCIER JONATHAN 09:03:59:00 D 182 0.00 Arbaz, Suisse
665 455 KLUCKEN ARNO 09:04:04:00 F 140 0.00 NIJMEGEN, Pays-Bas
666 975 MINA ALFREDO 09:04:19:00 E 163 0.00 Geneva, Philippines
667 771 CARNAT JEAN-CHRISTOPHE 09:04:29:00 F 135 0.00 GENEVE, France
668 181 Ebbing Guido 09:05:19:00 C 93 0.00 Utrecht, Pays-Bas
669 905 PIGNEUR THOMAS 09:06:53:00 D 187 0.00 Echichens, Suisse
670 194 EUBANK CHERYL 09:06:57:00 AB 29 0.00 MONT-SUR-ROLLE, Suisse
671 673 VANDER STICHELE NICOLAS 09:08:34:00 D 190 0.00 Gent, Belgique
672 1061 PRESTON CLIVE 09:09:25:00 D 191 0.00 PLYMOUTH, Royaume-Uni
673 146 BRESSOUD PATRICK 09:09:48:00 F 138 0.00 CHOëX, Suisse
674 957 VAN PUYMBROECK THIERRY 09:09:52:00 D 193 0.00 Heverlee, Belgique
675 450 STEENMAN GERT-JAN 09:09:53:00 F 141 0.00 NIJMEGEN, Pays-Bas
676 158 WILLIAMS JANE 09:10:27:00 A 19 0.00 Baar, Suisse
677 745 VAUGHAN SARAH 09:10:27:00 AB 30 0.00 LONDON, Royaume-Uni
678 157 WILLIAMS SIMON 09:10:29:00 D 189 0.00 Baar, Suisse
679 954 FAURE EMMANUELLE 09:10:29:00 B 11 0.00 Divonne-les-Bains, France
680 1103 DELVAUX PHIL 09:10:32:00 E 168 0.00 Bruxelles, Belgique
681 457 BANG JENS CHRISTIAN 09:11:35:00 F 139 0.00 Geneve, Suisse
682 1016 TOUGERON FRANCK 09:11:38:00 E 170 0.00 Treillieres, France
683 964 BERTRAND MAXIME 09:12:14:00 D 188 0.00 San martino di lota, France
684 1106 OBI SAMUEL 09:12:17:00 E 176 0.00 Aigle, Suisse
685 421 TRIBOLET LAURENT 09:13:13:00 E 165 0.00 Cugy, Suisse
686 923 GAMBA GIUSEPPE 09:13:25:00 F 147 0.00 ACQUI TERME, Italie
687 922 FUMAGALLI LUISA 09:13:31:00 AB 32 0.00 MILANO, Italie
688 493 DI MARCO FABRIZIO 09:13:35:00 F 142 0.00 Neuchâtel, Suisse
689 683 REDUCE PATRICK 09:13:54:00 E 166 0.00 Vétroz, Suisse
690 215 Langenegger Reto 09:14:06:00 D 194 0.00 Au, Suisse
691 746 LOUW DOMINIQUE 09:14:13:00 F 145 0.00 Montrabe, France
692 619 TAFFIN JEAN-BAPTISTE 09:14:26:00 D 195 0.00 Paris 18e Arrondissement, France
693 1092 BAERISWYL YVAN 09:14:36:00 D 192 0.00 Châbles, Suisse
694 1012 ORMANDY JULIAN 09:15:49:00 E 171 0.00 Fichtenau, Allemagne
695 175 Parvex Pascal 09:15:56:00 E 173 0.00 Aïre, Suisse
696 174 NEVADO RUI PEDRO 09:15:57:00 D 196 0.00 Genève, Suisse
697 222 MAILFERT NOEL 09:16:05:00 G2 9 0.00 ROMONT, France
698 1017 SALMON ANDREW 09:16:31:00 E 172 0.00 Richterswil, Suisse
699 205 Tetart Benjamin 09:17:22:00 E 174 0.00 Bourgvallees, France
700 206 POUPPEVILLE David 09:17:24:00 D 198 0.00 Saint Georges Montcocq, France
701 586 HEMMER GERHARD 09:18:24:00 F 144 0.00 Herford, France
702 266 WYSS ROMAIN 09:18:35:00 D 200 0.00 Ecublens, Suisse
703 1101 RILEY JACK 09:18:58:00 D 199 0.00 Cheyres, Fribourg, Suisse, Suisse
704 897 ABRAHAM DIDIER 09:19:06:00 F 146 0.00 Romagny-Fontenay, France
705 250 ROSSI MARIO 09:20:24:00 F 143 0.00 NOES, Suisse
706 976 RANCES JERTES 09:21:04:00 D 197 0.00 Geneva, Suisse
707 1066 BIRD DOMINIC 09:21:30:00 D 201 0.00 LONDON, Royaume-Uni
708 243 CHANEY THIERRY 09:22:02:00 F 149 0.00 Montévrain, France
709 953 FAURE MARVIN 09:22:09:00 G1 26 0.00 Divonne-les-Bains, France
710 955 WOLF-REBER ALEXANDER 09:22:28:00 E 178 0.00 Hattersheim, Allemagne
711 239 VAN DOP AAD 09:22:29:00 G1 21 0.00 Berkel en Rodenrijs, Pays-Bas
712 242 BOMERS JENNY 09:22:32:00 AB 31 0.00 Losser, Pays-Bas
713 604 VERGOOSEN JO 09:23:54:00 F 148 0.00 St. Joost, Pays-Bas
714 33 MEIER CHRISTIAN 09:23:56:00 E 177 0.00 , Suisse
715 1063 MAROT PAUL 09:24:06:00 F 151 0.00 Etalle, Belgique
716 522 MOTTARD MICHEL 09:24:15:00 F 152 0.00 Fratin, Belgique
717 252 MEIJER BART 09:24:54:00 E 175 0.00 Losser, Pays-Bas
718 216 Roffler Daniel 09:26:23:00 E 180 0.00 Wädenswil, Suisse
719 442 KAMPF JOHANN 09:26:23:00 D 203 0.00 Rüti ZH, Suisse
720 868 TURNER JAMES 09:27:49:00 F 154 0.00 WINCHESTER, Royaume-Uni
721 814 SMAILES GEOFF 09:28:08:00 F 153 0.00 alresford, Royaume-Uni
722 451 ERLEBACH EVA 09:29:32:00 A 20 0.00 Zürich, Suisse
723 1028 PAUWELS IVO 09:30:02:00 F 150 0.00 Schoten, Afghanistan
724 873 DESLARZES PHILIP 09:30:18:00 C 94 0.00 LAUSANNE, Suisse
725 875 VEDANI SEBASTIEN 09:30:21:00 C 95 0.00 LAUSANNE, Suisse
726 891 BAERT GWENNY 09:31:38:00 AB 33 0.00 MARIAKERKE, Belgique
727 290 EXCOFFIER JEAN-LUC 09:34:22:00 E 179 0.00 CHENS-SUR-LEMAN, France
728 428 KISSLIG JEREMY 09:34:39:00 D 202 0.00 Môtiers, Suisse
729 807 REMANDET PHILIPPE 09:34:55:00 E 183 0.00 Lavigny, Suisse
730 298 GATHOT VINCENT 09:36:00:00 E 184 0.00 TERNAT, Belgique
731 985 MATELLICANI SIMONE 09:36:26:00 E 181 0.00 san severino marche, Italie
732 367 GUTZWILLER JONATHAN 09:36:29:00 C 96 0.00 La Neuveville, Suisse
733 517 VAN DIJK HUGO 09:37:41:00 E 185 0.00 Zwolle, Pays-Bas
734 784 MAEYAERT WIM 09:37:54:00 D 204 0.00 Gent, Belgique
735 1119 STEVENSON CRAIG 09:39:39:00 E 182 0.00 Veyras, Suisse
736 806 DORTA JUDITH 09:40:03:00 B 12 0.00 Buchillon, Suisse
737 293 GAMBRELL ANDREW 09:40:36:00 F 155 0.00 LONDON, Royaume-Uni
738 529 VAN LOOY GLENN 09:41:22:00 C 97 0.00 Savièse, Suisse
739 804 CRUCHON FRANCOIS 09:42:22:00 G1 22 0.00 Echichens, Suisse
740 753 MARTIN MARC-ANTOINE 09:42:48:00 D 205 0.00 Les Herbiers, France
741 904 TERRAPON WILLY 09:43:33:00 G1 24 0.00 COUSSET, Suisse
742 917 DE PAEPE PHILIPPE 09:43:41:00 G1 23 0.00 Brugge, Belgique
743 504 KURZ XAVIER 09:44:19:00 G1 27 0.00 Liège, Belgique
744 945 REYNDERS PHILIPPE 09:44:43:00 F 158 0.00 Liehe, Belgique
745 502 GENGOU ALAIN 09:44:51:00 F 159 0.00 Liege, Belgique
746 542 COUSIN CLAUDE 09:45:09:00 F 161 0.00 LIEGE, Belgique
747 652 SAINT LOUP RENAUD 09:46:55:00 E 187 0.00 Carrouge, Suisse
748 623 HUYGEN TANGUY 09:48:26:00 F 156 0.00 HERVE, Belgique
749 988 MACSIK JOSEF 09:49:27:00 F 157 0.00 Nacka, Suède
750 805 BEER RUDOLF 09:50:53:00 G1 25 0.00 Lussy-sur-Morges, Suisse
751 291 BLANC FREDERIC 09:51:03:00 D 206 0.00 GRANGES, Suisse
752 637 HENRY J-PAUL 09:51:26:00 E 186 0.00 Corbeyrier, Suisse
753 496 VAN DER HEIJDEN THIJS 09:51:47:00 E 188 0.00 NUENEN, Pays-Bas
754 110 RANDO JAN 09:52:04:00 F 162 0.00 VEDBAEK, Danemark
755 515 BRUINS SLOT MARC 09:52:53:00 E 189 0.00 Oisterwijk, Pays-Bas
756 577 HEMMERLE LORENZ 09:54:04:00 D 207 0.00 Vevey, Suisse
757 1010 GRIGIS CHRISTIAN 09:56:15:00 E 190 0.00 Meyrin, Suisse
758 413 DEKKICHE ALI 09:57:55:00 D 212 0.00 Fully, Suisse
759 980 AUGSBURGER LOIC 10:01:51:00 D 208 0.00 Lausanne, Suisse
760 762 HANNESBO MORTEN 10:02:38:00 F 163 0.00 Zug, Suisse
761 384 LEBLANC CHLOE 10:03:16:00 A 21 0.00 PETIT-LANCY, Suisse
762 537 FIECHTER THOMAS 10:05:24:00 F 164 0.00 Biel-Benken BL, Suisse
763 678 ESPINOSA JAYME 10:09:49:00 C 98 0.00 Yens, Suisse
764 1056 BALDENHOFER ANDY 10:10:18:00 E 191 0.00 Thalwil, Suisse
765 994 SMOLDERS LUCAS 10:11:41:00 D 209 0.00 Zurich, Suisse
766 995 MARTINI FRANCO 10:11:44:00 C 99 0.00 Zurich, Suisse
767 481 VERHAEGHE DIRK 10:12:20:00 E 192 0.00 ottenburg, Belgique
768 674 MONNERAT NICOLAS 10:21:48:00 C 100 0.00 Sion, Suisse
769 1019 BOICHUT ANTOINE 10:21:49:00 C 101 0.00 Dijon, France
770 991 BREDEWOLD ESTHER 10:22:41:00 AB 34 0.00 t Harde, Pays-Bas
771 582 FARNIER ALEXANDRE 10:23:11:00 C 102 0.00 Bern, Suisse
772 808 VOYAME NORBERT 10:24:41:00 G1 28 0.00 Aubonne, Suisse
773 410 THIEREN LAETITIA 10:24:44:00 A 22 0.00 Zurich, Suisse
774 260 DEVOGELAERE JURGEN 10:28:17:00 E 193 0.00 ANZEGEM, Belgique
775 373 MOLYNEAUX ADAM 10:29:09:00 F 160 0.00 BLONAY, Suisse
776 556 MATELLICANI ANDREA 10:30:14:00 F 165 0.00 ancona, Italie
777 275 STREIGNARD ISABELLE 10:33:03:00 AB 35 0.00 Olne, Belgique
778 628 ACX HANS 10:33:53:00 F 166 0.00 Wevelgem, Belgique
779 1042 PIRON JASPER 10:36:44:00 D 210 0.00 BERCHEM (ANTWERPEN), Belgique
780 627 GARCIA MARC 10:42:17:00 F 167 0.00 LEYSIN, Suisse
781 718 HELSENS MANUEL 10:42:38:00 F 169 0.00 VINEUIL ST FIRMIN, France
782 615 GHEYSEN HENDRIK 10:43:00:00 G1 29 0.00 wevelgem, Belgique
783 681 FERNANDEZ JOY TRISTAN 10:43:18:00 D 211 0.00 Geneva, Suisse
784 256 FROELICHER DAVID 10:43:19:00 C 104 0.00 LAUSANNE, Suisse
785 147 Poirot Nicolas 10:43:41:00 C 103 0.00 Peseux, Suisse
786 255 LECOULTRE MARC 10:44:17:00 C 105 0.00 ROLLE, Suisse
787 314 WAGTBERG POULINE 10:50:18:00 AB 37 0.00 Smørum, Danemark
788 587 PRIOR JULIEN 10:50:30:00 C 106 0.00 Genève, Suisse
789 781 MOMMAAL ROELAND 10:53:15:00 G1 30 0.00 Ismaning, Allemagne
790 295 BECKERS PETER 10:58:03:00 G1 31 0.00 BUNDE, Pays-Bas
791 389 WOLTERINK FEMKE 11:00:01:00 AB 36 0.00 Groenlo, Pays-Bas
792 594 FEYT FRANK 11:10:47:00 F 170 0.00 Kapellen, Belgique
793 495 Van der Heijden Joost 11:14:19:00 E 195 0.00 DELFGAUW, Pays-Bas
794 436 KNIJNENBURG DENNIS 11:16:11:00 E 194 0.00 HEEMSTEDE, Pays-Bas
795 719 LOCATELLI GILLES 11:20:13:00 F 168 0.00 NéMIAZ (CHAMOSON), Suisse
796 435 VAN DER MEULEN RICK HENDRIK ADRIAAN 11:20:59:00 D 213 0.00 BEVERWIJK, Pays-Bas
797 230 JENSEN STEEN ULF 11:26:45:00 F 171 0.00 Holte, Danemark
798 195 BISGAARD INGE 11:26:48:00 B 13 0.00 Holte, Danemark
799 165 HANSEN ROLF 11:42:29:00 G1 32 0.00 Espergaerde, Danemark

La Morzine Haut Chablais

Après une saison 2020 très particulière et face à cette pandémie qui s'étire en longueur, nous avons dû nous adapter.

Ainsi, c'est avec beaucoup de regrets que nous vous annonçons que La Morzine Haut Chablais ne sera pas organisée en 2021.

Nous travaillons afin que vous puissiez relever le défi de manière alternative.

Nous vous tiendrons informés.
TOP